• In Czech Republic
  • List of Countries
  • For 7 days
  • Water Temperature
  • Satellite Maps
  • Weather Map
  • Weather Widgets
  • user-avatar
    Login

    Hourly Weather Armawir

    Today, 17 November, Friday

    Time Temperature Precipitation Wind Pressure Humidity
    00:00 +8°C° 0 mm 0 mps 690 mmHg 59%
    01:00 +8°C° 0 mm 0 mps 690 mmHg 60%
    02:00 +7°C° 0 mm 0 mps 690 mmHg 61%
    03:00 +8°C° 0 mm 1 mps 689 mmHg 59%
    04:00 +7°C° 0 mm 0 mps 689 mmHg 60%
    05:00 +6°C° 0 mm 0 mps 689 mmHg 61%
    06:00 +6°C° 0 mm 0 mps 689 mmHg 62%
    07:00 +8°C° 0 mm 0 mps 690 mmHg 55%
    08:00 +10°C° 0 mm 1 mps 690 mmHg 48%
    09:00 +12°C° 0 mm 1 mps 690 mmHg 43%
    10:00 +13°C° 0 mm 1 mps 690 mmHg 39%
    11:00 +14°C° 0 mm 1 mps 690 mmHg 36%
    12:00 +15°C° 0 mm 2 mps 689 mmHg 33%
    13:00 +15°C° 0 mm 2 mps 689 mmHg 32%
    14:00 +16°C° 0 mm 2 mps 689 mmHg 32%
    15:00 +16°C° 0 mm 2 mps 689 mmHg 31%
    16:00 +14°C° 0 mm 2 mps 689 mmHg 34%
    17:00 +13°C° 0 mm 1 mps 689 mmHg 38%
    18:00 +11°C° 0 mm 1 mps 689 mmHg 41%
    19:00 +11°C° 0 mm 1 mps 689 mmHg 42%
    20:00 +10°C° 0 mm 1 mps 689 mmHg 42%
    21:00 +10°C° 0 mm 1 mps 689 mmHg 43%
    22:00 +10°C° 0 mm 1 mps 689 mmHg 43%
    23:00 +9°C° 0 mm 1 mps 689 mmHg 44%

    Tomorrow, 18 November, Saturday

    Time Temperature Precipitation Wind Pressure Humidity
    00:00 +9°C° 0 mm 1 mps 689 mmHg 44%
    01:00 +9°C° 0 mm 1 mps 689 mmHg 44%
    02:00 +9°C° 0 mm 1 mps 689 mmHg 45%
    03:00 +8°C° 0 mm 1 mps 689 mmHg 45%
    04:00 +8°C° 0 mm 1 mps 689 mmHg 46%
    05:00 +8°C° 0 mm 1 mps 689 mmHg 46%
    06:00 +8°C° 0 mm 1 mps 689 mmHg 47%
    07:00 +9°C° 0 mm 1 mps 690 mmHg 43%
    08:00 +11°C° 0 mm 1 mps 690 mmHg 39%
    09:00 +12°C° 0 mm 1 mps 690 mmHg 36%
    10:00 +13°C° 0 mm 2 mps 690 mmHg 33%
    11:00 +14°C° 0 mm 2 mps 690 mmHg 31%
    12:00 +16°C° 0 mm 2 mps 690 mmHg 29%
    13:00 +16°C° 0 mm 3 mps 690 mmHg 28%
    14:00 +16°C° 0 mm 3 mps 689 mmHg 28%
    15:00 +16°C° 0 mm 3 mps 689 mmHg 28%
    16:00 +14°C° 0 mm 2 mps 689 mmHg 31%
    17:00 +13°C° 0 mm 2 mps 689 mmHg 35%
    18:00 +10°C° 0 mm 2 mps 689 mmHg 39%
    19:00 +10°C° 0 mm 2 mps 689 mmHg 39%
    20:00 +10°C° 0 mm 2 mps 689 mmHg 40%
    21:00 +10°C° 0 mm 1 mps 689 mmHg 41%
    22:00 +10°C° 0 mm 1 mps 689 mmHg 42%
    23:00 +10°C° 0 mm 1 mps 689 mmHg 42%

    Day after tomorrow, 19 November, Sunday

    Time Temperature Precipitation Wind Pressure Humidity
    00:00 +10°C° 0 mm 1 mps 689 mmHg 43%
    01:00 +8°C° 0 mm 2 mps 689 mmHg 43%
    02:00 +8°C° 0 mm 2 mps 689 mmHg 43%
    03:00 +8°C° 0 mm 2 mps 688 mmHg 44%
    04:00 +8°C° 0 mm 2 mps 688 mmHg 43%
    05:00 +9°C° 0 mm 1 mps 688 mmHg 43%
    06:00 +9°C° 0 mm 1 mps 688 mmHg 42%
    07:00 +9°C° 0 mm 2 mps 688 mmHg 39%
    08:00 +10°C° 0 mm 2 mps 688 mmHg 36%
    09:00 +13°C° 0 mm 2 mps 689 mmHg 33%
    10:00 +13°C° 0.1 mm 2 mps 688 mmHg 33%
    11:00 +14°C° 0.1 mm 2 mps 688 mmHg 34%
    12:00 +15°C° 0.1 mm 2 mps 688 mmHg 34%
    13:00 +13°C° 0.2 mm 3 mps 688 mmHg 38%
    14:00 +13°C° 0.2 mm 3 mps 687 mmHg 42%
    15:00 +13°C° 0.2 mm 3 mps 687 mmHg 46%
    16:00 +12°C° 0.1 mm 3 mps 687 mmHg 49%
    17:00 +12°C° 0.1 mm 2 mps 687 mmHg 52%
    18:00 +10°C° 0.1 mm 2 mps 687 mmHg 55%
    19:00 +10°C° 0 mm 2 mps 687 mmHg 56%
    20:00 +9°C° 0 mm 2 mps 687 mmHg 57%
    21:00 +9°C° 0 mm 2 mps 687 mmHg 59%
    22:00 +9°C° 0 mm 2 mps 687 mmHg 59%
    23:00 +8°C° 0 mm 2 mps 687 mmHg 60%

    20 November, Monday

    Time Temperature Precipitation Wind Pressure Humidity
    00:00 +8°C° 0 mm 2 mps 687 mmHg 60%
    01:00 +8°C° 0 mm 2 mps 687 mmHg 61%
    02:00 +8°C° 0 mm 2 mps 687 mmHg 62%
    03:00 +8°C° 0 mm 2 mps 687 mmHg 62%
    04:00 +8°C° 0 mm 2 mps 687 mmHg 64%
    05:00 +7°C° 0 mm 2 mps 687 mmHg 65%
    06:00 +7°C° 0 mm 2 mps 687 mmHg 66%
    07:00 +8°C° 0 mm 2 mps 687 mmHg 63%
    08:00 +10°C° 0 mm 2 mps 687 mmHg 59%
    09:00 +12°C° 0 mm 2 mps 687 mmHg 56%
    10:00 +12°C° 0 mm 3 mps 687 mmHg 54%
    11:00 +13°C° 0 mm 3 mps 686 mmHg 51%
    12:00 +14°C° 0 mm 3 mps 686 mmHg 49%
    13:00 +14°C° 0.1 mm 3 mps 685 mmHg 49%
    14:00 +14°C° 0.1 mm 3 mps 685 mmHg 49%
    15:00 +14°C° 0.1 mm 3 mps 685 mmHg 48%
    16:00 +13°C° 0.1 mm 3 mps 685 mmHg 52%
    17:00 +13°C° 0.1 mm 2 mps 684 mmHg 56%
    18:00 +10°C° 0.1 mm 2 mps 684 mmHg 60%
    19:00 +10°C° 0.1 mm 2 mps 684 mmHg 61%
    20:00 +10°C° 0.1 mm 2 mps 684 mmHg 61%
    21:00 +10°C° 0.1 mm 2 mps 684 mmHg 62%
    22:00 +9°C° 0 mm 2 mps 684 mmHg 63%
    23:00 +9°C° 0 mm 2 mps 684 mmHg 64%

    21 November, Tuesday

    Time Temperature Precipitation Wind Pressure Humidity
    00:00 +10°C° 0 mm 1 mps 684 mmHg 65%
    01:00 +9°C° 0 mm 2 mps 683 mmHg 66%
    02:00 +9°C° 0 mm 2 mps 683 mmHg 67%
    03:00 +9°C° 0 mm 2 mps 683 mmHg 67%
    04:00 +8°C° 0 mm 2 mps 683 mmHg 68%
    05:00 +9°C° 0 mm 1 mps 683 mmHg 69%
    06:00 +9°C° 0 mm 1 mps 682 mmHg 70%
    07:00 +9°C° 0 mm 2 mps 682 mmHg 66%
    08:00 +10°C° 0 mm 2 mps 682 mmHg 62%
    09:00 +12°C° 0 mm 2 mps 683 mmHg 58%
    10:00 +13°C° 0 mm 2 mps 682 mmHg 55%
    11:00 +13°C° 0 mm 3 mps 682 mmHg 52%
    12:00 +14°C° 0 mm 3 mps 682 mmHg 49%
    13:00 +14°C° 0 mm 3 mps 681 mmHg 51%
    14:00 +14°C° 0 mm 3 mps 681 mmHg 52%
    15:00 +14°C° 0 mm 3 mps 681 mmHg 53%
    16:00 +12°C° 0 mm 3 mps 681 mmHg 59%
    17:00 +12°C° 0 mm 2 mps 681 mmHg 65%
    18:00 +10°C° 0 mm 2 mps 681 mmHg 71%
    19:00 +10°C° 0.1 mm 2 mps 681 mmHg 73%
    20:00 +11°C° 0.1 mm 1 mps 681 mmHg 75%
    21:00 +10°C° 0.1 mm 1 mps 681 mmHg 77%
    22:00 +10°C° 0.1 mm 1 mps 681 mmHg 78%
    23:00 +10°C° 0.1 mm 1 mps 681 mmHg 80%

    22 November, Wednesday

    Time Temperature Precipitation Wind Pressure Humidity
    00:00 +9°C° 0.1 mm 1 mps 681 mmHg 81%
    01:00 +9°C° 0 mm 1 mps 680 mmHg 81%
    02:00 +9°C° 0 mm 1 mps 680 mmHg 80%
    03:00 +9°C° 0 mm 1 mps 680 mmHg 80%
    04:00 +8°C° 0 mm 0 mps 680 mmHg 80%
    05:00 +7°C° 0 mm 0 mps 680 mmHg 81%
    06:00 +7°C° 0 mm 0 mps 680 mmHg 81%
    07:00 +8°C° 0.1 mm 0 mps 681 mmHg 78%
    08:00 +10°C° 0.1 mm 1 mps 681 mmHg 74%
    09:00 +11°C° 0.1 mm 1 mps 681 mmHg 71%
    10:00 +11°C° 0.3 mm 1 mps 681 mmHg 68%
    11:00 +12°C° 0.3 mm 2 mps 680 mmHg 66%
    12:00 +12°C° 0.3 mm 2 mps 680 mmHg 64%
    13:00 +12°C° 0.5 mm 2 mps 680 mmHg 65%
    14:00 +12°C° 0.5 mm 2 mps 680 mmHg 66%
    15:00 +10°C° 0.5 mm 2 mps 680 mmHg 68%
    16:00 +10°C° 0.6 mm 2 mps 681 mmHg 70%
    17:00 +9°C° 0.6 mm 2 mps 681 mmHg 72%
    18:00 +9°C° 0.6 mm 2 mps 681 mmHg 74%
    19:00 +9°C° 0.8 mm 2 mps 682 mmHg 76%
    20:00 +9°C° 0.8 mm 2 mps 682 mmHg 77%
    21:00 +8°C° 0.8 mm 2 mps 682 mmHg 78%
    22:00 +8°C° 0.5 mm 2 mps 682 mmHg 78%
    23:00 +8°C° 0.5 mm 2 mps 683 mmHg 78%
    Show more